Weather History for KGHW - August, 2013

Change the Weather History Date:

Tuesday, August 27, 2013

  Actual Average Record
Temperature  
Mean Temperature 81 °F -  
Max Temperature 91 °F 78 °F 93 °F (1984)
Min Temperature 71 °F 54 °F 33 °F (2001)
Cooling Degree Days 16    
Growing Degree Days 31 (Base 50)    
Moisture  
Dew Point 71 °F    
Average Humidity 77    
Maximum Humidity 100    
Minimum Humidity 46    
Precipitation  
Precipitation 0.00 in - - ()
Sea Level Pressure  
Sea Level Pressure 29.88 in    
Wind  
Wind Speed 6 mph (NE)    
Max Wind Speed 12 mph    
Max Gust Speed -    
Visibility 8 miles    
Events Fog    
Averages and records for this station are not official NWS values.
T = Trace of Precipitation, MM = Missing Value Source: NWS Daily Summary

Daily Weather History Graph

Daily Weather History Graph

Search for Another Location

Airport or City:

Trip Planner

Search our weather history database for the weather conditions in past years. The results will help you decide how hot, cold, wet, or windy it might be!

Date:

Astronomy

Aug. 27, 2013 Rise Set
Actual Time 6:36 AM CDT 8:07 PM CDT
Civil Twilight 6:05 AM CDT 8:38 PM CDT
Nautical Twilight 5:27 AM CDT 9:16 PM CDT
Astronomical Twilight 4:47 AM CDT 9:56 PM CDT
Moon 11:38 PM CDT (8/27) 1:58 PM CDT (8/27)
Length of Visible Light 14h 33m
Length of Day
13h 31m
Waning Gibbous, 57% of the Moon is Illuminated
Aug 27
Waning Gibbous
Aug 28
Last Quarter
Sep 5
New
Sep 12
First Quarter
Sep 19
Full

Hourly Weather History & Observations

Time (CDT) Temp. Heat Index Dew Point Humidity Pressure Visibility Wind Dir Wind Speed Gust Speed Precip Events Conditions
12:13 AM 78.8 °F - 75.2 °F 89% 29.85 in 10.0 mi South 5.8 mph - N/A   Clear
12:34 AM 78.8 °F - 75.2 °F 89% 29.84 in 10.0 mi South 6.9 mph - N/A   Clear
12:53 AM 78.8 °F - 75.2 °F 89% 29.84 in 10.0 mi South 5.8 mph - N/A   Clear
1:13 AM 78.8 °F - 75.2 °F 89% 29.84 in 10.0 mi South 4.6 mph - N/A   Clear
1:33 AM 78.8 °F - 73.4 °F 83% 29.84 in 10.0 mi South 4.6 mph - N/A   Clear
1:53 AM 77.0 °F - 73.4 °F 89% 29.83 in 10.0 mi South 3.5 mph - N/A   Clear
2:14 AM 77.0 °F - 73.4 °F 89% 29.82 in 10.0 mi Calm Calm - N/A   Clear
2:33 AM 77.0 °F - 73.4 °F 89% 29.82 in 10.0 mi SSW 3.5 mph - N/A   Clear
2:53 AM 75.2 °F - 73.4 °F 94% 29.81 in 7.0 mi South 4.6 mph - N/A   Clear
3:13 AM 75.2 °F - 73.4 °F 94% 29.81 in 7.0 mi SW 3.5 mph - N/A   Clear
3:33 AM 75.2 °F - 73.4 °F 94% 29.81 in 7.0 mi WSW 3.5 mph - N/A   Clear
3:53 AM 75.2 °F - 73.4 °F 94% 29.82 in 7.0 mi NNW 4.6 mph - N/A   Clear
4:13 AM 75.2 °F - 73.4 °F 94% 29.82 in 7.0 mi North 4.6 mph - N/A   Clear
4:33 AM 75.2 °F - 73.4 °F 94% 29.82 in 5.0 mi NNE 6.9 mph - N/A   Clear
4:54 AM 73.4 °F - 71.6 °F 94% 29.83 in 7.0 mi NNE 8.1 mph - N/A   Clear
5:13 AM 71.6 °F - 71.6 °F 100% 29.83 in 10.0 mi NNE 10.4 mph - N/A   Clear
5:33 AM 71.6 °F - 69.8 °F 94% 29.83 in 7.0 mi NE 9.2 mph - N/A   Scattered Clouds
5:53 AM 71.6 °F - 69.8 °F 94% 29.83 in 3.0 mi NNE 8.1 mph - N/A   Mostly Cloudy
6:13 AM 71.6 °F - 69.8 °F 94% 29.83 in 4.0 mi NE 4.6 mph - N/A   Scattered Clouds
6:33 AM 71.6 °F - 69.8 °F 94% 29.84 in 4.0 mi NE 5.8 mph - N/A   Scattered Clouds
6:53 AM 71.6 °F - 69.8 °F 94% 29.84 in 1.2 mi NE 6.9 mph - N/A   Overcast
7:13 AM 71.6 °F - 71.6 °F 100% 29.85 in 0.2 mi NE 5.8 mph - N/A Fog Fog
7:34 AM 71.6 °F - 71.6 °F 100% 29.85 in 0.2 mi ENE 4.6 mph - N/A Fog Fog
7:53 AM 71.6 °F - 71.6 °F 100% 29.86 in 0.2 mi NNE 5.8 mph - N/A Fog Fog
8:13 AM 71.6 °F - 71.6 °F 100% 29.86 in 0.2 mi East 4.6 mph - N/A Fog Fog
8:33 AM 73.4 °F - 71.6 °F 94% 29.86 in 0.2 mi NE 5.8 mph - N/A Fog Fog
8:53 AM 73.4 °F - 71.6 °F 94% 29.86 in 0.2 mi ENE 3.5 mph - N/A Fog Fog
9:14 AM 73.4 °F - 73.4 °F 100% 29.86 in 0.8 mi Calm Calm - N/A   Overcast
9:33 AM 75.2 °F - 73.4 °F 94% 29.87 in 2.5 mi NNE 6.9 mph - N/A   Overcast
9:53 AM 75.2 °F - 73.4 °F 94% 29.88 in 5.0 mi NNE 5.8 mph - N/A   Overcast
10:14 AM 77.0 °F - 73.4 °F 89% 29.88 in 7.0 mi NNE 6.9 mph - N/A   Overcast
10:33 AM 77.0 °F - 73.4 °F 89% 29.88 in 5.0 mi NNE 10.4 mph - N/A   Overcast
10:53 AM 77.0 °F - 73.4 °F 89% 29.89 in 7.0 mi NNE 10.4 mph - N/A   Overcast
11:13 AM 78.8 °F - 73.4 °F 83% 29.90 in 7.0 mi NE 8.1 mph - N/A   Mostly Cloudy
11:33 AM 82.4 °F 88.2 °F 73.4 °F 74% 29.89 in 10.0 mi NNE 8.1 mph - N/A   Scattered Clouds
11:53 AM 82.4 °F 88.2 °F 73.4 °F 74% 29.90 in 10.0 mi NNE 8.1 mph - N/A   Clear
12:13 PM 84.2 °F 89.6 °F 71.6 °F 66% 29.90 in 10.0 mi NNE 11.5 mph - N/A   Clear
12:33 PM 86.0 °F 91.8 °F 71.6 °F 62% 29.90 in 10.0 mi NNE 10.4 mph - N/A   Clear
12:54 PM 87.8 °F 93.8 °F 71.6 °F 58% 29.90 in 10.0 mi NE 6.9 mph - N/A   Clear
1:13 PM 87.8 °F 93.8 °F 71.6 °F 58% 29.89 in 10.0 mi NNE 9.2 mph - N/A   Clear
1:33 PM 89.6 °F 96.2 °F 71.6 °F 55% 29.89 in 10.0 mi NE 6.9 mph - N/A   Clear
1:53 PM 89.6 °F 94.7 °F 69.8 °F 52% 29.89 in 10.0 mi NNE 9.2 mph - N/A   Clear
2:13 PM 91.4 °F 96.8 °F 69.8 °F 49% 29.89 in 10.0 mi NE 5.8 mph - N/A   Clear
2:33 PM 91.4 °F 96.8 °F 69.8 °F 49% 29.89 in 10.0 mi NNE 6.9 mph - N/A   Clear
2:53 PM 91.4 °F 96.8 °F 69.8 °F 49% 29.89 in 10.0 mi NE 5.8 mph - N/A   Clear
3:13 PM 91.4 °F 96.8 °F 69.8 °F 49% 29.88 in 10.0 mi NNE 8.1 mph - N/A   Clear
3:34 PM 91.4 °F 96.8 °F 69.8 °F 49% 29.88 in 10.0 mi North 9.2 mph - N/A   Clear
3:53 PM 91.4 °F 96.8 °F 69.8 °F 49% 29.88 in 10.0 mi North 9.2 mph - N/A   Clear
4:13 PM 91.4 °F 96.8 °F 69.8 °F 49% 29.89 in 10.0 mi North 6.9 mph - N/A   Clear
4:33 PM 91.4 °F 96.8 °F 69.8 °F 49% 29.89 in 10.0 mi North 8.1 mph - N/A   Clear
4:53 PM 91.4 °F 96.8 °F 69.8 °F 49% 29.89 in 10.0 mi NNE 6.9 mph - N/A   Clear
5:13 PM 91.4 °F 95.4 °F 68.0 °F 46% 29.89 in 10.0 mi North 6.9 mph - N/A   Clear
5:33 PM 89.6 °F 93.4 °F 68.0 °F 49% 29.90 in 10.0 mi North 9.2 mph - N/A   Clear
5:53 PM 89.6 °F 92.2 °F 66.2 °F 46% 29.90 in 10.0 mi North 6.9 mph - N/A   Clear
6:13 PM 89.6 °F 92.2 °F 66.2 °F 46% 29.91 in 10.0 mi NE 6.9 mph - N/A   Clear
6:33 PM 89.6 °F 92.2 °F 66.2 °F 46% 29.91 in 10.0 mi NNE 5.8 mph - N/A   Clear
6:53 PM 87.8 °F 92.6 °F 69.8 °F 55% 29.91 in 10.0 mi NNE 6.9 mph - N/A   Clear
7:13 PM 86.0 °F 90.4 °F 69.8 °F 58% 29.91 in 10.0 mi NNE 6.9 mph - N/A   Clear
7:33 PM 84.2 °F 88.4 °F 69.8 °F 62% 29.92 in 10.0 mi NNE 5.8 mph - N/A   Clear
7:53 PM 80.6 °F 83.9 °F 69.8 °F 70% 29.92 in 10.0 mi NNE 6.9 mph - N/A   Clear
8:13 PM 80.6 °F 83.9 °F 69.8 °F 70% 29.93 in 10.0 mi NNE 6.9 mph - N/A   Clear
8:33 PM 77.0 °F - 69.8 °F 78% 29.94 in 7.0 mi NNE 5.8 mph - N/A   Clear
8:53 PM 75.2 °F - 69.8 °F 83% 29.94 in 10.0 mi NE 5.8 mph - N/A   Clear
9:13 PM 75.2 °F - 69.8 °F 83% 29.95 in 10.0 mi NE 5.8 mph - N/A   Clear
9:33 PM 73.4 °F - 68.0 °F 83% 29.95 in 10.0 mi NE 5.8 mph - N/A   Clear
9:53 PM 73.4 °F - 68.0 °F 83% 29.96 in 10.0 mi NE 4.6 mph - N/A   Clear
10:14 PM 73.4 °F - 68.0 °F 83% 29.96 in 10.0 mi ENE 3.5 mph - N/A   Clear
10:33 PM 71.6 °F - 68.0 °F 88% 29.97 in 10.0 mi ENE 4.6 mph - N/A   Clear
10:53 PM 71.6 °F - 68.0 °F 88% 29.97 in 10.0 mi ENE 5.8 mph - N/A   Clear
11:13 PM 71.6 °F - 66.2 °F 83% 29.97 in 10.0 mi ENE 6.9 mph - N/A   Clear
11:33 PM 71.6 °F - 66.2 °F 83% 29.97 in 10.0 mi ENE 5.8 mph - N/A   Clear